Regional Weather Roundup
Issued by NWS Green Bay, WI

Home | Current Version | Previous Version | Text Only | Print | Product List | Glossary On
Versions: 1 2 3 4 5 6 7 8 9 10 11 12 13 14 15 16 17 18 19 20 21 22 23 24 25 26 27 28 29 30 31 32 33 34 35 36 37 38 39 40 41 42 43 44 45 46 47 48 49 50
000
ASUS43 KGRB 260800
RWRGRB

NORTH-CENTRAL AND NORTHEAST WISCONSIN REGIONAL WEATHER ROUNDUP
NATIONAL WEATHER SERVICE GREEN BAY WI
300 AM CDT WED APR 26 2017

WIZ005-009-010>012-018-019-260900-
NORTH CENTRAL WISCONSIN

CITY           SKY/WX    TMP DP  RH WIND       PRES   REMARKS
IRONWOOD       MIX PCPN  32  31  96 NE12G21   29.64F
MANITOWISH WTR NOT AVBL
ARBOR VITAE    NOT AVBL
EAGLE RIVER    NOT AVBL
LAND O LAKES   NOT AVBL
RHINELANDER    LGT RAIN  45  45 100 VRB6      29.55F
PHILLIPS       LGT RAIN  36  36 100 NE10      29.55F
ANTIGO         NOT AVBL
TOMAHAWK       NOT AVBL
MERRILL        NOT AVBL
$$

WIZ013-073-260900-
NORTHEAST WISCONSIN

CITY           SKY/WX    TMP DP  RH WIND       PRES   REMARKS
IRON MOUNTAIN  RAIN      51  47  86 VRB7      29.57F FOG
MARINETTE      LGT RAIN  45  43  93 NE10      29.56F
$$

WIZ017-030-035>037-045-260900-
CENTRAL WISCONSIN

CITY           SKY/WX    TMP DP  RH WIND       PRES   REMARKS
MEDFORD        NOT AVBL
WAUSAU         LGT RAIN  55  54  96 E7        29.48F
MOSINEE        NOT AVBL
MARSHFIELD     LGT RAIN  56  52  86 E10       29.45F
WISC RAPIDS    LGT RAIN  58  56  93 E5        29.46F
STEVENS POINT  NOT AVBL
WAUPACA        NOT AVBL
SHAWANO        NOT AVBL
CLINTONVILLE   RAIN      54  52  94 E3        29.51F
WAUTOMA        LGT RAIN  60  56  86 SE6       29.46F
$$

WIZ038-039-048-051-260900-
FOX VALLEY

CITY           SKY/WX    TMP DP  RH WIND       PRES   REMARKS
NWS GREEN BAY  CLOUDY    53  53 100 NE5       29.52F
APPLETON       NOT AVBL
OSHKOSH        LGT RAIN  60  53  77 SE6       29.48F
FOND DU LAC    CLOUDY    62  51  67 SE13      29.48F
$$

WIZ022-050-052-260900-
EAST CENTRAL WISCONSIN

CITY           SKY/WX    TMP DP  RH WIND       PRES   REMARKS
EPHRAIM        NOT AVBL
WASHINGTON ISL NOT AVBL
STURGEON BAY   CLOUDY    52  48  86 E8        29.55F
MANITOWOC      NOT AVBL
SHEBOYGAN      CLOUDY    56  51  84 S6        29.52F
$$

LMZ563-521-522-541>543-260900-
LAKESHORE

STATION/POSITION TIME  TEMP    WIND        PRES    VSBY  WAVE
                       AIR SEA DIR/SP/G                  HT/PER
                 (UTC) (F)     (DEG/KT/KT) (MB)    (MI)  (FT/S)
SHEBOYGAN LKSHOR 0700   49     140/  9/ 12  999.8F
KEWAUNEE LKSHORE 0730   56      90/  4/  9 1000.3F
NORTHPORT PIER   0740   43      80/  8/ 12 1002.0F
N MID LAKE BUOY  0650   41 37   80/ 10/ 10 1003.8F         2/ 4
CHAMBERS ISLAND  0740   41      20/  9/ 11 1001.4F
MENOMINEE LKSHOR 0730   42      20/ 15/ 18 1000.9F
$$




USA.gov is the U.S. government's official web portal to all federal, state and local government web resources and services.